Location: Strada George Coșbuc
(47.6577°N, 23.5639°E)
Time: 06:46:57
(UTC+03:00)

Envisat - Visible Passes

Search period start: 04 August 2021 00:00
Search period end: 14 August 2021 00:00
Orbit: 764 x 766 km, 98.2° (Epoch: 03 August)

Date Brightness Start Highest point End Pass type
(mag) Time Alt. Az. Time Alt. Az. Time Alt. Az.
05 Aug 6.0 05:18:23 10° ENE 05:20:34 13° E 05:22:45 10° ESE visible
10 Aug 5.7 05:31:19 10° NE 05:34:37 17° E 05:37:55 10° SE visible
13 Aug 5.9 05:20:27 10° ENE 05:22:59 14° E 05:25:30 10° ESE visible
